map of LNS home
LNS - Airport
Location
City:  Lancaster, Pennsylvania, United States
ICAO:KLNS
IATA:LNS
FAA LID:LNS

Details
Type:Airport (Part 139 Class II)
Use:Public/Civil
Latitude:4007'20"N (40.122361)
Longitude:7617'40"W (-76.294360)
Datum:WGS 1984
Elevation:402 ft (123 m)
Variation:11.53W (WMM2015 magnetic declination)
0.01 annual change
Runways:2
Longest:6933 × 150 ft (2113 × 45.5 m), paved

Time
Time Zone:UTC-5 (DST-4)
Local Time:

Weather
METAR:KLNS 261253Z 27005KT 7SM SCT060 24/21 A2987 RMK AO2 SLP112 T02440206
TAF:KLNS 261210Z 2612/2712 29005KT P6SM SCT080
FM261600 26006KT P6SM VCSH BKN050
FM270500 24005KT 5SM -SHRA BR BKN040

Related Locations
Nearby:
Farthest:YAUG: 11693 mi / 18818 km
Augusta [Augusta Airport], WA, AU

Find:

   beyond  
but within

Other Information
Maps:
Delays:
NOTAMs:
Links:
Sources:

  
flag of United States
flag of Pennsylvania
  

Airport Diagram

Airport diagram for LNS

Airport diagram PDF

Sectional Chart

Flight Planning
at skyvector.com

Satellite Image

Google Maps Satellite view

 

Copyright © 2004-2018 Karl L. Swartz. All rights reserved.
The Great Circle Mapper name and logo are trademarks of the Great Circle Mapper.
All other trademarks mentioned herein belong to their respective owners.
Please see credits for attibutions and further copyright information.

  Follow gcmap on Facebook Follow gcmap on Twitter Follow gcmap on Google+ GCmap on LinkedIn

hCard Microformat

Geo Microformat